Home   Weather   Suhl   Past weeks

Flag for Germany Past Weather in Suhl, Thuringia, Germany — Yesterday and Last 2 Weeks

50 °F

Partly sunny.

Feels Like: 46 °F
Forecast: 42 / 50 °F
Wind: 9 mph from Southwest

Location: Erfurt-Bindersleben

Current Time: Oct 28, 2016 at 10:38:26 AM

Latest Report: Oct 28, 2016 at 9:50 AM

Visibility: N/A

Pressure: 30.45 "Hg

Humidity: 88%

Dew Point: 46 °F

Location of SuhlLocation

Past Weather in Suhl — Graph


Suhl Temperature Yesterday

Maximum temperature yesterday: 54 °F (at 2:20 PM)
Minimum temperature yesterday: 37 °F (at 4:50 AM)
Average temperature yesterday: 46 °F

High & Low Weather Summary for the Past Weeks

High63 °F (Oct 16, 1:20 PM)100% (Oct 13, 9:20 AM)30.48 "Hg (Oct 13, 9:20 AM)
Low36 °F (Oct 23, 12:20 AM)64% (Oct 16, 1:20 PM)29.74 "Hg (Oct 15, 1:20 AM)
Average46 °F92%30.06 "Hg
* Reported Oct 13 9:20 AM — Oct 28 9:20 AM, Suhl, Weather by CustomWeather, © 2016

Note: Actual official high and low records may vary slightly from our data, if they occured in-between our weather recording intervals... More about our weather records


Suhl Weather History for the Previous 24 Hours

Scroll right to see more
Time TempWeatherWind HumidityBarometerVisibility
9:20 AM
Fri, Oct 28
50 °FPartly sunny.12 mph88%30.42 "HgN/A
8:50 AM48 °FPartly sunny.13 mph94%30.42 "HgN/A
8:20 AM48 °FPartly sunny.9 mph87%30.42 "HgN/A
7:50 AM48 °FPassing clouds.6 mph87%30.42 "HgN/A
7:20 AM48 °FPassing clouds.8 mph87%30.42 "HgN/A
6:50 AM48 °FPassing clouds.7 mph87%30.45 "HgN/A
6:20 AM46 °FPassing clouds.10 mph87%30.42 "HgN/A
5:50 AM48 °FPassing clouds.10 mph87%30.42 "HgN/A
5:20 AM46 °FPartly cloudy.9 mph93%30.45 "HgN/A
4:50 AM45 °FPartly cloudy.7 mph93%30.45 "HgN/A
4:20 AM45 °FPassing clouds.7 mph93%30.45 "HgN/A
3:50 AM43 °FPassing clouds.8 mph93%30.45 "HgN/A
3:20 AM45 °FPassing clouds.10 mph93%30.45 "HgN/A
2:50 AM45 °FClear.12 mph87%30.45 "Hg10 mi
2:20 AM45 °FClear.10 mph87%30.48 "Hg10 mi
1:50 AM45 °FClear.13 mph87%30.48 "Hg10 mi
1:20 AM45 °FPassing clouds.12 mph87%30.48 "HgN/A
12:50 AM45 °FPassing clouds.8 mph87%30.48 "HgN/A
12:20 AM43 °FClear.6 mph93%30.48 "Hg10 mi
11:50 PM
Thu, Oct 27
43 °FClear.8 mph93%30.48 "Hg10 mi
11:20 PM43 °FPassing clouds.8 mph93%30.48 "HgN/A
10:50 PM45 °FPassing clouds.7 mph93%30.48 "HgN/A
10:20 PM45 °FClear.8 mph93%30.48 "Hg10 mi
9:50 PM46 °FPassing clouds.12 mph93%30.48 "HgN/A
9:20 PM46 °FPassing clouds.10 mph93%30.48 "HgN/A
8:50 PM46 °FPassing clouds.9 mph93%30.48 "HgN/A
8:20 PM48 °FPassing clouds.10 mph87%30.48 "HgN/A
7:50 PM46 °FClear.8 mph93%30.48 "Hg10 mi
7:20 PM48 °FClear.7 mph87%30.48 "Hg10 mi
6:50 PM50 °FClear.9 mph88%30.48 "Hg10 mi
6:20 PM50 °FClear.9 mph88%30.48 "Hg10 mi
5:50 PM50 °FSunny.7 mph88%30.48 "Hg10 mi
5:20 PM52 °FSunny.7 mph82%30.48 "Hg10 mi
4:50 PM52 °FSunny.10 mph82%30.48 "Hg10 mi
4:20 PM52 °FPartly sunny.10 mph82%30.48 "HgN/A
3:50 PM52 °FPartly sunny.13 mph82%30.48 "HgN/A
3:20 PM52 °FPartly sunny.12 mph82%30.48 "HgN/A
2:50 PM54 °FPartly sunny.12 mph77%30.48 "HgN/A
2:20 PM54 °FPartly sunny.10 mph77%30.48 "HgN/A
1:50 PM52 °FPartly sunny.9 mph82%30.48 "HgN/A
1:20 PM52 °FPartly sunny.9 mph82%30.48 "HgN/A
12:50 PM52 °FSunny.10 mph82%30.48 "Hg10 mi
12:20 PM50 °FSunny.12 mph88%30.48 "Hg10 mi
11:50 AM50 °FSunny.13 mph88%30.48 "Hg10 mi
11:20 AM48 °FPartly sunny.10 mph94%30.48 "Hg5 mi
10:50 AM46 °FPartly sunny.12 mph93%30.45 "Hg5 mi
10:20 AM45 °FPartly sunny.9 mph93%30.45 "Hg4 mi
Weather by CustomWeather, © 2016

See weather overviewHow to use our weather pages